KC7NGC-B Weather Reports


time (UTC)temp
C
wind
direction
speed
KPH
gust
KPH
rain 1hr
cm
rain 24hr
cm
rain mn
cm
humidity
%
barometer
mb
20260903130622 11 215 9.7 19.3 0.00 0.05 0.00 1 1012.0
20260903125618 11 207 11.3 16.1 0.00 0.05 0.00 1 1012.0
20260903124633 11 202 11.3 20.9 0.00 0.05 0.00 1 1011.8
20260903123629 11 217 11.3 20.9 0.00 0.05 0.00 1 1011.8
20260903122625 12 194 8.0 9.7 0.00 0.05 0.00 1 1011.8
20260903121622 12 219 8.0 12.9 0.00 0.05 0.00 1 1011.9
20260903120617 12 215 11.3 16.1 0.00 0.05 0.00 1 1011.9
20260903115634 12 204 4.8 6.4 0.00 0.05 0.00 1 1011.8
20260903114630 12 211 8.0 12.9 0.00 0.05 0.00 1 1011.9
20260903113626 12 177 4.8 8.0 0.00 0.05 0.00 1 1011.8
20260903112623 12 187 6.4 9.7 0.00 0.05 0.00 1 1011.9
20260903111640 12 224 11.3 14.5 0.00 0.05 0.00 1 1011.8
20260903110702 12 188 9.7 17.7 0.00 0.05 0.00 1 1011.3
20260903105632 13 179 8.0 11.3 0.00 0.05 0.00 1 1011.4
20260903104629 13 218 9.7 17.7 0.00 0.05 0.00 1 1011.1
20260903103625 13 197 6.4 9.7 0.00 0.05 0.00 1 1011.0
20260903102620 13 160 6.4 8.0 0.00 0.05 0.00 1 1011.1
20260903101617 13 186 8.0 11.3 0.00 0.05 0.00 1 1011.2
20260903100633 13 178 9.7 16.1 0.00 0.05 0.00 1 1011.2
20260903095650 13 206 11.3 17.7 0.00 0.05 0.00 1 1011.2
20260903094625 13 218 6.4 8.0 0.00 0.05 0.00 1 1011.2
20260903093622 13 207 8.0 11.3 0.00 0.05 0.00 1 1011.1
20260903092618 13 205 16.1 17.7 0.00 0.05 0.00 1 1011.1
20260903091634 13 202 11.3 16.1 0.00 0.05 0.00 1 1010.8
20260903090630 13 192 6.4 12.9 0.00 0.05 0.00 1 1010.9
20260903085626 13 206 11.3 14.5 0.00 0.05 0.00 1 1010.8
20260903084623 13 212 11.3 17.7 0.00 0.05 0.00 1 1010.7
20260903083619 13 183 9.7 12.9 0.00 0.05 0.00 1 1010.9
20260903082634 13 211 12.9 17.7 0.00 0.05 0.00 1 1010.7
20260903081651 13 199 11.3 19.3 0.00 0.05 0.00 1 1010.4
20260903080627 13 185 8.0 11.3 0.00 0.05 0.00 1 1010.4
20260903075724 13 215 9.7 16.1 0.00 0.05 0.00 1 1010.1
20260903074620 13 209 9.7 16.1 0.00 0.05 0.00 1 1010.2
20260903073616 13 205 11.3 17.7 0.00 0.05 0.00 1 1010.2
20260903072633 13 188 9.7 12.9 0.00 0.05 0.00 1 1010.1
20260903071650 13 202 11.3 20.9 0.00 0.05 0.00 1 1010.2
20260903070626 13 192 11.3 20.9 0.03 0.05 0.00 1 1010.0
20260903065622 13 199 11.3 14.5 0.03 0.05 0.05 1 1009.9
20260903064618 13 197 12.9 17.7 0.03 0.05 0.05 1 1009.9
20260903063635 13 217 9.7 16.1 0.03 0.05 0.05 1 1009.9
20260903062631 13 197 11.3 17.7 0.03 0.03 0.03 1 1010.0
20260903061627 13 192 14.5 19.3 0.03 0.03 0.03 1 1009.9
20260903060623 13 205 12.9 22.5 0.00 0.03 0.03 1 1009.8
20260903055619 14 191 17.7 25.7 0.00 0.03 0.03 1 1009.8
20260903054635 14 194 9.7 17.7 0.00 0.03 0.03 1 1010.0
20260903053631 15 207 20.9 32.2 0.00 0.00 0.00 1 1010.0
20260903052627 15 191 9.7 19.3 0.00 0.00 0.00 1 1010.1
20260903051624 15 202 16.1 19.3 0.00 0.00 0.00 1 1009.9
20260903050620 15 202 16.1 20.9 0.00 0.00 0.00 1 1010.0
20260903045616 15 208 11.3 20.9 0.00 0.00 0.00 1 1009.8
20260903044632 15 215 11.3 19.3 0.00 0.00 0.00 1 1009.7
20260903043628 15 198 14.5 22.5 0.00 0.00 0.00 1 1009.6
20260903042625 15 198 9.7 27.4 0.00 0.00 0.00 1 1009.7
20260903041701 15 208 12.9 30.6 0.00 0.00 0.00 1 1009.6
20260903040616 15 190 9.7 19.3 0.00 0.00 0.00 1 1009.6
20260903035653 15 195 11.3 24.1 0.00 0.00 0.00 1 1009.6
20260903034629 15 199 12.9 17.7 0.00 0.00 0.00 1 1009.5
20260903033625 15 200 14.5 19.3 0.00 0.00 0.00 1 1009.5
20260903032621 15 196 12.9 19.3 0.00 0.00 0.00 1 1009.6
20260903031617 15 202 11.3 17.7 0.00 0.00 0.00 1 1009.3
20260903030633 16 199 8.0 14.5 0.00 0.00 0.00 1 1009.3
20260903025629 16 196 8.0 16.1 0.00 0.00 0.00 1 1009.1
20260903024645 16 198 9.7 14.5 0.00 0.00 0.00 1 1009.2
20260903023622 16 204 12.9 16.1 0.00 0.00 0.00 1 1009.4
20260903022618 16 188 12.9 24.1 0.00 0.00 0.00 1 1009.4
20260903021654 16 201 16.1 22.5 0.00 0.00 0.00 1 1009.2
20260903020631 16 205 12.9 19.3 0.00 0.00 0.00 1 1009.2
20260903015627 16 217 9.7 19.3 0.00 0.00 0.00 1 1009.4
20260903014623 16 199 14.5 24.1 0.00 0.00 0.00 1 1009.5
20260903013619 17 217 11.3 19.3 0.00 0.00 0.00 1 1009.2
20260903012656 17 217 19.3 27.4 0.00 0.00 0.00 1 1009.4
20260903011632 17 221 14.5 25.7 0.00 0.00 0.00 1 1009.4
20260903010628 17 212 16.1 25.7 0.00 0.00 0.00 1 1009.3
20260903005624 17 222 9.7 16.1 0.00 0.00 0.00 1 1009.1
20260903004620 18 218 9.7 25.7 0.00 0.00 0.00 1 1009.1
20260903003619 18 219 19.3 27.4 0.00 0.00 0.00 1 1009.1
20260903002632 18 216 12.9 22.5 0.00 0.00 0.00 1 1009.1
20260903001628 17 223 14.5 32.2 0.00 0.00 0.00 1 1009.0
20260903000624 17 215 16.1 22.5 0.00 0.00 0.00 1 1009.1
20260902235621 17 205 14.5 20.9 0.00 0.00 0.00 1 1009.1
20260902234617 18 210 12.9 22.5 0.00 0.00 0.00 1 1008.9
20260902233654 19 215 14.5 25.7 0.00 0.00 0.00 1 1008.7
20260902232629 19 214 17.7 32.2 0.00 0.00 0.00 1 1008.9
20260902231646 19 210 19.3 25.7 0.00 0.00 0.00 1 1009.2
20260902230621 18 224 9.7 17.7 0.00 0.00 0.00 1 1009.3
20260902225618 17 204 9.7 14.5 0.00 0.00 0.00 1 1009.2
20260902224634 17 205 9.7 16.1 0.00 0.00 0.00 1 1009.3
20260902223650 17 211 14.5 19.3 0.00 0.00 0.00 1 1009.2
20260902222626 18 237 14.5 33.8 0.00 0.00 0.00 1 1009.2
20260902221623 21 216 9.7 16.1 0.00 0.00 0.00 1 1008.7
20260902220638 23 186 14.5 19.3 0.00 0.00 0.00 1 1008.0
20260902215634 22 189 6.4 9.7 0.00 0.00 0.00 1 1008.0
20260902214631 22 183 6.4 8.0 0.00 0.00 0.00 1 1008.0
20260902213627 22 180 11.3 17.7 0.00 0.00 0.00 1 1008.1
20260902212703 22 177 9.7 12.9 0.00 0.00 0.00 1 1008.1
20260902211639 23 179 8.0 9.7 0.00 0.00 0.00 1 1008.2
20260902210635 23 172 6.4 9.7 0.00 0.00 0.00 1 1008.2
20260902205632 23 216 8.0 11.3 0.00 0.00 0.00 1 1008.1
20260902204628 22 219 6.4 9.7 0.00 0.00 0.00 1 1008.2
20260902203625 22 177 3.2 6.4 0.00 0.00 0.00 1 1008.3
20260902202621 22 201 8.0 11.3 0.00 0.00 0.00 1 1008.5
20260902201617 22 215 3.2 8.0 0.00 0.00 0.00 1 1008.6
20260902200634 22 176 8.0 12.9 0.00 0.00 0.00 1 1008.7
20260902195629 22 253 6.4 9.7 0.00 0.00 0.00 1 1008.9
20260902194707 22 266 8.0 9.7 0.00 0.00 0.00 1 1009.0
20260902193622 22 205 9.7 17.7 0.00 0.00 0.00 1 1009.1
20260902192639 22 219 9.7 12.9 0.00 0.00 0.00 1 1009.2
20260902191635 22 183 4.8 11.3 0.00 0.00 0.00 1 1009.4
20260902190631 21 211 9.7 17.7 0.00 0.00 0.00 1 1009.3
20260902185630 21 207 4.8 6.4 0.00 0.00 0.00 1 1009.7
20260902184624 21 213 6.4 11.3 0.00 0.00 0.00 1 1009.5
20260902183619 21 182 11.3 17.7 0.00 0.00 0.00 1 1009.9
20260902182616 21 209 12.9 22.5 0.00 0.00 0.00 1 1009.9
20260902181632 21 182 12.9 16.1 0.00 0.00 0.00 1 1009.8
20260902180629 21 211 4.8 9.7 0.00 0.00 0.00 1 1009.9
20260902175645 21 185 6.4 12.9 0.00 0.00 0.00 1 1009.9
20260902174641 20 207 9.7 14.5 0.00 0.00 0.00 1 1010.1
20260902173618 20 182 9.7 12.9 0.00 0.00 0.00 1 1009.9
20260902172634 19 200 6.4 9.7 0.00 0.00 0.00 1 1010.1
20260902171630 18 194 9.7 16.1 0.00 0.00 0.00 1 1010.1
20260902170626 18 208 8.0 9.7 0.00 0.00 0.00 1 1010.0
20260902165623 19 192 12.9 16.1 0.00 0.00 0.00 1 1010.2
20260902164619 19 201 9.7 17.7 0.00 0.00 0.00 1 1010.1
20260902163620 18 175 11.3 19.3 0.00 0.00 0.00 1 1010.1
20260902162632 18 197 8.0 11.3 0.00 0.00 0.00 1 1009.9
20260902161628 17 192 11.3 17.7 0.00 0.00 0.00 1 1010.1
20260902160625 17 196 6.4 11.3 0.00 0.00 0.00 1 1010.2
20260902155621 17 191 11.3 19.3 0.00 0.00 0.00 1 1010.2
20260902154617 16 196 11.3 14.5 0.00 0.00 0.00 1 1010.3
20260902153654 15 208 6.4 9.7 0.00 0.00 0.00 1 1010.4
20260902152630 15 207 6.4 8.0 0.00 0.00 0.00 1 1010.3
20260902151626 15 200 9.7 14.5 0.00 0.00 0.00 1 1010.5
20260902150622 15 198 8.0 12.9 0.00 0.00 0.00 1 1010.4
20260902145619 15 212 6.4 9.7 0.00 0.00 0.00 1 1010.4
20260902144635 13 215 11.3 17.7 0.00 0.00 0.00 1 1010.4
20260902143651 13 245 4.8 11.3 0.00 0.00 0.00 1 1010.7
20260902142627 13 305 8.0 11.3 0.00 0.00 0.00 1 1010.6
20260902141623 14 282 4.8 11.3 0.00 0.00 0.00 1 1010.2
20260902140620 14 260 6.4 9.7 0.00 0.00 0.00 1 1010.3
20260902135617 14 300 1.6 6.4 0.00 0.00 0.00 1 1010.1
20260902134633 14 322 1.6 4.8 0.00 0.00 0.00 1 1010.1
20260902133710 14 202 12.9 19.3 0.00 0.00 0.00 1 1009.8
20260902132626 14 213 12.9 20.9 0.00 0.00 0.00 1 1009.6
20260902131622 14 205 11.3 20.9 0.00 0.00 0.00 1 1009.4